Location: Calvera
(42.3882°N, 0.6137°E)
Time: 14:25:55
(UTC+00:00)

Meteor 1-31 Rocket - Pass Details

Date: 28 October 2020
Orbit: 521 x 546 km, 97.6° (Epoch: 25 November)

Event Time Altitude Azimuth Distance (km) Brightness Sun altitude
Rises 05:52:19 0° 355° (N) 2,724 6.2 -6.9°
Reaches altitude 10° 05:54:59 10° 336° (NNW) 1,825 5.1 -6.4°
Maximum altitude 05:57:38 18° 294° (WNW) 1,400 4.3 -6.0°
Drops below altitude 10° 06:00:16 10° 252° (WSW) 1,813 4.9 -5.5°
Sets 06:02:54 0° 232° (SW) 2,698 6.0 -5.0°
